| time (UTC) | temp C | wind direction | speed KPH | gust KPH | rain 1hr cm | rain 24hr cm | rain mn cm | humidity % | barometer mb |
| 20260510225803 | 19 | 162 | 1.6 | 12.9 | 0.00 | 0.25 | 0.25 | 43 | 1019.2 |
| 20260510224804 | 20 | 140 | 4.8 | 9.7 | 0.00 | 0.25 | 0.25 | 43 | 1019.2 |
| 20260510223803 | 20 | 354 | 3.2 | 8.0 | 0.00 | 0.25 | 0.25 | 40 | 1019.2 |
| 20260510222804 | 19 | 214 | 1.6 | 8.0 | 0.00 | 0.25 | 0.25 | 43 | 1019.2 |
| 20260510221804 | 20 | 212 | 4.8 | 8.0 | 0.00 | 0.25 | 0.25 | 40 | 1019.3 |
| 20260510220803 | 20 | 270 | 1.6 | 6.4 | 0.00 | 0.25 | 0.25 | 41 | 1019.2 |
| 20260510215804 | 20 | 20 | 1.6 | 8.0 | 0.00 | 0.25 | 0.25 | 40 | 1019.4 |
| 20260510214804 | 20 | 62 | 3.2 | 9.7 | 0.00 | 0.25 | 0.25 | 41 | 1019.4 |
| 20260510213825 | 20 | 13 | 6.4 | 11.3 | 0.00 | 0.25 | 0.25 | 42 | 1019.4 |
| 20260510212803 | 20 | 66 | 6.4 | 8.0 | 0.00 | 0.25 | 0.25 | 41 | 1019.3 |
| 20260510211804 | 19 | 51 | 6.4 | 14.5 | 0.00 | 0.25 | 0.25 | 46 | 1019.4 |
| 20260510210803 | 19 | 21 | 8.0 | 17.7 | 0.00 | 0.25 | 0.25 | 40 | 1019.5 |
| 20260510205803 | 19 | 58 | 12.9 | 20.9 | 0.00 | 0.25 | 0.25 | 44 | 1019.7 |
| 20260510204804 | 18 | 156 | 6.4 | 11.3 | 0.00 | 0.25 | 0.25 | 43 | 1019.8 |
| 20260510203803 | 18 | 112 | 4.8 | 12.9 | 0.00 | 0.25 | 0.25 | 42 | 1019.8 |
| 20260510202804 | 18 | 93 | 8.0 | 14.5 | 0.00 | 0.25 | 0.25 | 45 | 1019.8 |
| 20260510201825 | 18 | 196 | 6.4 | 14.5 | 0.00 | 0.25 | 0.25 | 44 | 1019.9 |
| 20260510200803 | 18 | 185 | 6.4 | 14.5 | 0.00 | 0.25 | 0.25 | 47 | 1019.9 |
| 20260510195803 | 17 | 187 | 4.8 | 12.9 | 0.00 | 0.25 | 0.25 | 47 | 1019.9 |
| 20260510194803 | 17 | 93 | 6.4 | 22.5 | 0.00 | 0.25 | 0.25 | 45 | 1019.9 |
| 20260510193803 | 17 | 184 | 4.8 | 17.7 | 0.00 | 0.25 | 0.25 | 51 | 1020.0 |
| 20260510192804 | 17 | 98 | 8.0 | 14.5 | 0.00 | 0.25 | 0.25 | 50 | 1020.0 |
| 20260510191824 | 17 | 134 | 6.4 | 22.5 | 0.00 | 0.25 | 0.25 | 50 | 1020.3 |
| 20260510190804 | 16 | 115 | 6.4 | 11.3 | 0.00 | 0.25 | 0.25 | 48 | 1020.3 |
| 20260510185804 | 16 | 14 | 4.8 | 11.3 | 0.00 | 0.25 | 0.25 | 53 | 1020.3 |
| 20260510184803 | 15 | 104 | 8.0 | 17.7 | 0.00 | 0.25 | 0.25 | 53 | 1020.3 |
| 20260510183804 | 15 | 137 | 6.4 | 11.3 | 0.00 | 0.25 | 0.25 | 58 | 1020.3 |
| 20260510182803 | 15 | 75 | 3.2 | 14.5 | 0.00 | 0.25 | 0.25 | 60 | 1020.5 |
| 20260510181803 | 15 | 90 | 9.7 | 16.1 | 0.00 | 0.25 | 0.25 | 59 | 1020.3 |
| 20260510180825 | 14 | 85 | 6.4 | 14.5 | 0.00 | 0.25 | 0.25 | 59 | 1020.4 |
| 20260510175804 | 14 | 79 | 4.8 | 14.5 | 0.00 | 0.25 | 0.25 | 58 | 1020.6 |
| 20260510174803 | 14 | 53 | 4.8 | 11.3 | 0.00 | 0.25 | 0.25 | 57 | 1020.8 |
| 20260510173804 | 14 | 79 | 4.8 | 14.5 | 0.00 | 0.25 | 0.25 | 60 | 1020.9 |
| 20260510172803 | 13 | 341 | 6.4 | 11.3 | 0.00 | 0.25 | 0.25 | 63 | 1020.8 |
| 20260510171825 | 13 | 15 | 6.4 | 12.9 | 0.00 | 0.25 | 0.25 | 65 | 1020.8 |
| 20260510170803 | 13 | 4 | 8.0 | 14.5 | 0.00 | 0.25 | 0.25 | 66 | 1021.0 |
| 20260510165804 | 12 | 358 | 8.0 | 16.1 | 0.00 | 0.25 | 0.25 | 70 | 1020.8 |
| 20260510164803 | 12 | 345 | 8.0 | 16.1 | 0.00 | 0.25 | 0.25 | 74 | 1020.8 |
| 20260510163804 | 12 | 4 | 11.3 | 19.3 | 0.00 | 0.25 | 0.25 | 73 | 1020.6 |
| 20260510162803 | 12 | 327 | 6.4 | 17.7 | 0.00 | 0.25 | 0.25 | 75 | 1020.5 |
| 20260510161804 | 11 | 349 | 8.0 | 14.5 | 0.00 | 0.25 | 0.25 | 76 | 1020.5 |
| 20260510160804 | 11 | 346 | 3.2 | 9.7 | 0.00 | 0.25 | 0.25 | 77 | 1020.4 |
| 20260510155803 | 11 | 308 | 4.8 | 9.7 | 0.00 | 0.25 | 0.25 | 79 | 1020.3 |
| 20260510154804 | 11 | 321 | 3.2 | 12.9 | 0.00 | 0.25 | 0.25 | 81 | 1020.1 |
| 20260510153803 | 11 | 333 | 6.4 | 12.9 | 0.00 | 0.25 | 0.25 | 84 | 1019.8 |
| 20260510152825 | 10 | 301 | 6.4 | 12.9 | 0.00 | 0.25 | 0.25 | 86 | 1019.8 |
| 20260510151803 | 10 | 308 | 4.8 | 11.3 | 0.00 | 0.25 | 0.25 | 86 | 1019.6 |
| 20260510150803 | 10 | 320 | 3.2 | 9.7 | 0.00 | 0.25 | 0.25 | 85 | 1019.3 |
| 20260510145804 | 10 | 350 | 6.4 | 16.1 | 0.00 | 0.25 | 0.25 | 85 | 1019.4 |
| 20260510144804 | 10 | 14 | 11.3 | 16.1 | 0.00 | 0.25 | 0.25 | 85 | 1019.3 |
| 20260510143803 | 9 | 359 | 6.4 | 11.3 | 0.00 | 0.25 | 0.25 | 86 | 1019.3 |
| 20260510142803 | 9 | 11 | 4.8 | 9.7 | 0.00 | 0.25 | 0.25 | 86 | 1019.1 |
| 20260510141803 | 8 | 35 | 4.8 | 9.7 | 0.00 | 0.25 | 0.25 | 87 | 1018.8 |
| 20260510140804 | 8 | 89 | 4.8 | 12.9 | 0.00 | 0.25 | 0.25 | 88 | 1018.9 |
| 20260510135803 | 8 | 64 | 4.8 | 9.7 | 0.03 | 0.25 | 0.25 | 89 | 1018.7 |
| 20260510134803 | 8 | 57 | 4.8 | 8.0 | 0.03 | 0.25 | 0.25 | 89 | 1019.0 |
| 20260510133824 | 8 | 70 | 4.8 | 12.9 | 0.03 | 0.25 | 0.25 | 89 | 1019.0 |
| 20260510132804 | 8 | 91 | 9.7 | 17.7 | 0.03 | 0.25 | 0.25 | 89 | 1018.9 |
| 20260510131803 | 8 | 91 | 14.5 | 25.7 | 0.03 | 0.25 | 0.25 | 89 | 1018.3 |
| 20260510130825 | 8 | 82 | 16.1 | 22.5 | 0.03 | 0.25 | 0.25 | 88 | 1018.0 |
| 20260510125825 | 8 | 66 | 14.5 | 25.7 | 0.18 | 0.23 | 0.23 | 88 | 1018.4 |
| 20260510124803 | 8 | 75 | 14.5 | 22.5 | 0.18 | 0.23 | 0.23 | 88 | 1018.4 |
| 20260510123825 | 9 | 28 | 8.0 | 17.7 | 0.15 | 0.20 | 0.20 | 88 | 1019.0 |
| 20260510122803 | 10 | 355 | 8.0 | 11.3 | 0.10 | 0.15 | 0.15 | 88 | 1019.1 |
| 20260510121803 | 10 | 317 | 3.2 | 8.0 | 0.08 | 0.13 | 0.13 | 88 | 1019.1 |
| 20260510120803 | 10 | 293 | 3.2 | 8.0 | 0.03 | 0.08 | 0.08 | 86 | 1019.2 |
| 20260510115804 | 10 | 284 | 3.2 | 8.0 | 0.03 | 0.03 | 0.03 | 85 | 1018.9 |
| 20260510114803 | 10 | 292 | 4.8 | 8.0 | 0.00 | 0.00 | 0.00 | 83 | 1018.4 |
| 20260510113804 | 10 | 309 | 3.2 | 12.9 | 0.00 | 0.00 | 0.00 | 82 | 1017.5 |
| 20260510112803 | 10 | 350 | 8.0 | 17.7 | 0.00 | 0.00 | 0.00 | 82 | 1016.8 |
| 20260510111803 | 10 | 16 | 12.9 | 19.3 | 0.00 | 0.00 | 0.00 | 82 | 1015.9 |
| 20260510110803 | 10 | 15 | 12.9 | 20.9 | 0.00 | 0.00 | 0.00 | 82 | 1015.3 |
| 20260510104804 | 10 | 17 | 17.7 | 27.4 | 0.00 | 0.00 | 0.00 | 83 | 1015.0 |
| 20260510103803 | 10 | 11 | 17.7 | 27.4 | 0.00 | 0.00 | 0.00 | 84 | 1015.0 |
| 20260510102804 | 10 | 3 | 16.1 | 24.1 | 0.00 | 0.00 | 0.00 | 84 | 1015.1 |
| 20260510101824 | 10 | 11 | 17.7 | 24.1 | 0.00 | 0.00 | 0.00 | 84 | 1015.1 |
| 20260510100803 | 10 | 5 | 14.5 | 22.5 | 0.00 | 0.00 | 0.00 | 83 | 1015.0 |
| 20260510095803 | 10 | 22 | 12.9 | 19.3 | 0.00 | 0.00 | 0.00 | 82 | 1014.7 |
| 20260510094803 | 10 | 27 | 12.9 | 20.9 | 0.00 | 0.00 | 0.00 | 81 | 1014.5 |
| 20260510093803 | 10 | 25 | 11.3 | 20.9 | 0.00 | 0.00 | 0.00 | 79 | 1014.6 |
| 20260510092803 | 10 | 41 | 12.9 | 19.3 | 0.00 | 0.00 | 0.00 | 79 | 1014.4 |
| 20260510091803 | 11 | 53 | 12.9 | 20.9 | 0.00 | 0.00 | 0.00 | 80 | 1014.0 |
| 20260510090803 | 11 | 39 | 11.3 | 25.7 | 0.00 | 0.00 | 0.00 | 81 | 1013.6 |
| 20260510085803 | 11 | 113 | 20.9 | 30.6 | 0.00 | 0.00 | 0.00 | 82 | 1012.2 |
| 20260510084803 | 11 | 81 | 14.5 | 22.5 | 0.00 | 0.00 | 0.00 | 81 | 1013.2 |
| 20260510083803 | 11 | 60 | 11.3 | 16.1 | 0.00 | 0.00 | 0.00 | 79 | 1013.9 |
| 20260510082826 | 11 | 19 | 8.0 | 16.1 | 0.00 | 0.00 | 0.00 | 78 | 1014.4 |
| 20260510081803 | 12 | 3 | 11.3 | 20.9 | 0.00 | 0.00 | 0.00 | 76 | 1014.6 |
| 20260510080803 | 12 | 4 | 11.3 | 19.3 | 0.00 | 0.00 | 0.00 | 74 | 1014.5 |
| 20260510075803 | 12 | 25 | 14.5 | 27.4 | 0.00 | 0.00 | 0.00 | 74 | 1014.2 |
| 20260510074804 | 12 | 86 | 20.9 | 30.6 | 0.00 | 0.00 | 0.00 | 74 | 1013.7 |
| 20260510073803 | 12 | 73 | 20.9 | 38.6 | 0.00 | 0.00 | 0.00 | 74 | 1013.6 |
| 20260510072803 | 12 | 79 | 27.4 | 40.2 | 0.00 | 0.00 | 0.00 | 74 | 1013.6 |
| 20260510071803 | 12 | 62 | 19.3 | 43.5 | 0.00 | 0.00 | 0.00 | 74 | 1013.9 |
| 20260510070804 | 12 | 56 | 29.0 | 45.1 | 0.00 | 0.00 | 0.00 | 73 | 1013.6 |
| 20260510065803 | 12 | 51 | 32.2 | 46.7 | 0.00 | 0.00 | 0.00 | 72 | 1013.5 |
| 20260510064804 | 13 | 53 | 30.6 | 46.7 | 0.00 | 0.00 | 0.00 | 70 | 1013.4 |
| 20260510063824 | 13 | 41 | 33.8 | 51.5 | 0.00 | 0.00 | 0.00 | 65 | 1013.3 |
| 20260510062804 | 14 | 47 | 29.0 | 48.3 | 0.00 | 0.00 | 0.00 | 62 | 1013.3 |
| 20260510061803 | 14 | 34 | 27.4 | 40.2 | 0.00 | 0.00 | 0.00 | 62 | 1013.6 |
| 20260510060824 | 14 | 37 | 22.5 | 37.0 | 0.00 | 0.00 | 0.00 | 61 | 1013.6 |
| 20260510055803 | 14 | 30 | 29.0 | 37.0 | 0.00 | 0.00 | 0.00 | 61 | 1013.8 |
| 20260510054803 | 14 | 26 | 22.5 | 32.2 | 0.00 | 0.00 | 0.00 | 60 | 1013.7 |
| 20260510053804 | 15 | 32 | 22.5 | 32.2 | 0.00 | 0.00 | 0.00 | 60 | 1013.5 |
| 20260510052803 | 15 | 28 | 22.5 | 37.0 | 0.00 | 0.00 | 0.00 | 59 | 1013.4 |
| 20260510051824 | 15 | 22 | 25.7 | 40.2 | 0.00 | 0.00 | 0.00 | 59 | 1013.4 |
| 20260510050803 | 15 | 14 | 25.7 | 32.2 | 0.00 | 0.00 | 0.00 | 61 | 1013.2 |
| 20260510045802 | 14 | 9 | 22.5 | 32.2 | 0.00 | 0.00 | 0.00 | 65 | 1013.1 |
| 20260510044803 | 14 | 39 | 17.7 | 29.0 | 0.00 | 0.00 | 0.00 | 62 | 1011.8 |
| 20260510043803 | 15 | 53 | 17.7 | 29.0 | 0.00 | 0.00 | 0.00 | 61 | 1010.8 |
| 20260510042803 | 15 | 54 | 17.7 | 30.6 | 0.00 | 0.00 | 0.00 | 59 | 1010.3 |
| 20260510041803 | 15 | 59 | 17.7 | 32.2 | 0.00 | 0.00 | 0.00 | 57 | 1009.7 |
| 20260510040803 | 16 | 70 | 22.5 | 33.8 | 0.00 | 0.00 | 0.00 | 56 | 1009.4 |
| 20260510035803 | 16 | 64 | 20.9 | 35.4 | 0.00 | 0.00 | 0.00 | 55 | 1008.8 |
| 20260510034803 | 16 | 79 | 22.5 | 40.2 | 0.00 | 0.00 | 0.00 | 54 | 1008.5 |
| 20260510033803 | 16 | 85 | 29.0 | 38.6 | 0.00 | 0.00 | 0.00 | 54 | 1007.9 |
| 20260510032824 | 16 | 86 | 24.1 | 33.8 | 0.00 | 0.00 | 0.00 | 54 | 1008.0 |
| 20260510031803 | 16 | 83 | 22.5 | 40.2 | 0.00 | 0.00 | 0.00 | 53 | 1007.9 |
| 20260510030803 | 17 | 76 | 24.1 | 35.4 | 0.00 | 0.00 | 0.00 | 53 | 1007.8 |
| 20260510025803 | 17 | 64 | 22.5 | 37.0 | 0.00 | 0.00 | 0.00 | 54 | 1007.3 |
| 20260510024803 | 17 | 58 | 22.5 | 35.4 | 0.00 | 0.00 | 0.00 | 54 | 1007.3 |
| 20260510023824 | 17 | 53 | 20.9 | 32.2 | 0.00 | 0.00 | 0.00 | 54 | 1007.2 |
| 20260510022803 | 17 | 58 | 20.9 | 33.8 | 0.00 | 0.00 | 0.00 | 53 | 1006.9 |
| 20260510021803 | 17 | 66 | 22.5 | 32.2 | 0.00 | 0.00 | 0.00 | 52 | 1006.5 |
| 20260510020825 | 18 | 73 | 19.3 | 35.4 | 0.00 | 0.00 | 0.00 | 51 | 1006.1 |
| 20260510015803 | 18 | 63 | 20.9 | 33.8 | 0.00 | 0.00 | 0.00 | 51 | 1006.2 |
| 20260510014803 | 18 | 65 | 20.9 | 40.2 | 0.00 | 0.00 | 0.00 | 50 | 1006.1 |
| 20260510013803 | 19 | 56 | 22.5 | 43.5 | 0.00 | 0.00 | 0.00 | 49 | 1006.1 |
| 20260510012803 | 19 | 54 | 25.7 | 43.5 | 0.00 | 0.00 | 0.00 | 48 | 1005.8 |
| 20260510011803 | 20 | 56 | 29.0 | 45.1 | 0.00 | 0.00 | 0.00 | 48 | 1005.3 |
| 20260510010803 | 20 | 55 | 32.2 | 48.3 | 0.00 | 0.00 | 0.00 | 47 | 1005.0 |
| 20260510003803 | 22 | 50 | 29.0 | 48.3 | 0.00 | 0.00 | 0.00 | 43 | 1004.0 |
| 20260510002803 | 22 | 42 | 30.6 | 56.3 | 0.00 | 0.00 | 0.00 | 42 | 1003.6 |
| 20260510001803 | 23 | 50 | 33.8 | 51.5 | 0.00 | 0.00 | 0.00 | 42 | 1003.4 |
| 20260510000803 | 23 | 37 | 30.6 | 49.9 | 0.00 | 0.00 | 0.00 | 41 | 1003.1 |
| 20260509235824 | 25 | 26 | 29.0 | 48.3 | 0.00 | 0.00 | 0.00 | 38 | 1003.4 |
| 20260509234803 | 26 | 19 | 35.4 | 53.1 | 0.00 | 0.00 | 0.00 | 34 | 1002.9 |
| 20260509233803 | 28 | 333 | 11.3 | 19.3 | 0.00 | 0.00 | 0.00 | 27 | 1002.3 |
| 20260509232803 | 28 | 321 | 9.7 | 20.9 | 0.00 | 0.00 | 0.00 | 25 | 1002.4 |
| 20260509231803 | 28 | 309 | 8.0 | 25.7 | 0.00 | 0.00 | 0.00 | 23 | 1002.4 |
| 20260509230803 | 28 | 316 | 8.0 | 20.9 | 0.00 | 0.00 | 0.00 | 25 | 1002.4 |